Location: Lurisia
(44.3000°N, 7.7000°E)
Time: 15:15:57
(UTC+00:00)

Daily predictions for brighter satellites

Satellite Brightness Start Highest point End
(mag) Time Altitude Azimuth Time Altitude Azimuth Time Altitude Azimuth
Cosmos 2026 Rocket 4.4 19:42:26 10° SSW 19:48:33 68° W 19:54:38 10° N
SPOT 5 3.0 19:46:44 10° SE 19:50:53 49° ENE 19:55:07 10° N
SL-24 R/B 4.4 19:47:27 10° S 19:52:16 75° W 19:56:28 10° NNW
KORONAS-FOTON 3.7 19:50:13 10° S 19:53:56 82° E 19:57:40 10° N
SL-16 R/B 2.7 19:50:35 10° NNW 19:56:05 48° ENE 20:01:32 10° SE
Cosmos 1933 Rocket 3.6 19:53:17 10° N 19:57:43 69° E 20:02:08 10° SSE
USA 234 3.4 19:51:28 10° ENE 19:57:47 49° SE 20:04:04 10° SSW
Cosmos 676 Rocket 4.0 19:52:40 10° S 19:57:56 70° ESE 20:03:14 10° NNE
Cosmos 2082 Rocket 3.2 19:52:53 10° SW 19:58:28 54° WNW 20:04:04 10° NNE
Cosmos 2333 Rocket 3.6 19:54:45 10° N 19:59:33 26° NE 20:04:20 10° ESE
USA 186 4.5 19:57:30 10° SW 20:00:00 20° W 20:02:31 10° NW
Cosmos 1842 3.3 19:56:41 10° SSW 20:00:19 76° W 20:03:59 10° N
Cosmos 2369 4.4 19:55:06 10° NNW 20:00:40 54° WSW 20:06:13 10° S
Cosmos 1190 Rocket 4.5 19:55:57 10° SSW 20:01:13 69° WNW 20:06:32 10° NNE
CZ-4 R/B 4.1 20:00:38 10° SW 20:03:09 16° W 20:05:42 10° NW
Resurs 01 Rocket 3.4 20:05:25 10° SSW 20:09:18 30° W 20:13:11 10° NW
Atlas Centaur 2 3.9 20:02:59 10° WSW 20:09:39 29° S 20:16:21 11° SE
Cosmos 1346 Rocket 4.4 20:10:33 10° NNE 20:13:29 20° ENE 20:16:09 11° ESE
Tiangong -0.4 20:11:53 10° WSW 20:14:20 20° SSW 20:16:23 12° SSE
ERS-1 Rocket 3.2 20:10:06 10° SSE 20:15:00 57° ENE 20:19:55 10° N
MetOp-B 4.2 20:10:47 10° SSE 20:16:08 88° E 20:21:32 10° NNW
Cosmos 841 Rocket 3.8 20:12:30 10° NNW 20:17:43 59° ENE 20:22:24 13° SE
Cosmos 1763 Rocket 4.5 20:13:43 10° NNW 20:18:40 44° WSW 20:23:33 10° S
Cosmos 1707 3.4 20:19:30 10° SSW 20:23:00 50° W 20:26:32 10° N
RESURS DK-1 2.8 20:19:55 10° NNW 20:23:54 50° ENE 20:27:05 15° SE
SJ 16-02 2.8 20:23:40 14° SE 20:25:53 20° E 20:29:02 10° NE
Terra 2.0 20:21:54 12° SSE 20:26:09 60° ENE 20:30:48 10° N
Spot 2 Rocket 3.8 20:23:44 13° SSE 20:28:11 56° ENE 20:33:10 10° N
Cosmos 1707 Rocket 4.4 20:25:27 13° SSE 20:28:50 34° E 20:32:51 10° NNE
IRS-1A Rocket 4.3 20:23:22 10° SSE 20:28:52 88° WSW 20:34:25 10° NNW
Cosmos 1758 3.8 20:31:18 10° N 20:35:04 44° ENE 20:37:41 18° SE
CZ-4C R/B 4.2 20:31:08 10° N 20:35:12 54° WNW 20:39:12 10° SSW
Cosmos 1980 Rocket 4.3 20:31:52 10° NW 20:36:00 21° W 20:40:07 10° SSW
Meteor 1-12 Rocket 4.5 20:30:26 10° N 20:36:26 65° ENE 20:41:28 15° SSE
ATLAS 2AS CENTAUR R/B 3.1 20:31:50 10° NNW 20:38:33 54° NE 20:44:10 14° ESE
Cosmos 2322 Rocket 2.4 20:32:54 10° NNW 20:38:34 64° ENE 20:42:59 17° SE
SL-08 ROCKET BODY 4.4 20:32:34 10° S 20:38:42 79° E 20:44:45 10° N
Meteor 1-22 Rocket 4.3 20:33:42 10° N 20:39:24 87° ENE 20:44:48 13° S
BREEZE-M DEB (TANK) 3.4 20:36:29 10° WSW 20:40:01 86° NNW 20:52:15 10° ENE
ARGOS Delta rocket 4.3 20:38:11 10° S 20:42:32 51° W 20:46:50 10° NNW
Meteor 2-10 Rocket 3.6 20:37:53 10° N 20:43:28 72° E 20:47:42 16° SSE
SL-4 R/B 4.0 20:46:20 10° WNW 20:49:40 27° N 20:53:12 10° ENE
Cosmos 1733 Rocket 3.4 20:45:55 10° N 20:50:15 53° ENE 20:53:00 21° SSE
Cosmos 2278 4.3 20:45:40 10° NW 20:51:12 52° WSW 20:56:03 13° S
Ariane Rocket 3.0 20:48:54 16° SSE 20:52:56 87° ENE 20:58:04 10° NNW
Okean 1-7 4.2 20:53:31 20° SE 20:55:15 26° E 20:58:51 10° NNE
Cosmos 1300 2.4 20:51:49 10° N 20:55:22 74° E 20:57:21 24° SSE
Timation 1 Rocket 4.5 20:49:30 10° SSW 20:55:27 79° WNW 21:01:28 10° NNE
S3M 4.2 20:49:25 10° NNW 20:55:47 73° W 21:01:40 12° S
SL-27 R/B 1.7 20:54:25 24° S 20:55:55 68° ESE 20:58:41 10° NNE
Cosmos 1400 Rocket 3.5 20:55:46 10° SSW 20:59:34 52° WNW 21:03:20 10° N
Meteor 1-21 4.3 20:56:48 14° S 21:01:50 69° E 21:07:38 10° NNE
Cosmos 1356 Rocket 3.4 20:59:27 15° S 21:02:55 86° ESE 21:07:09 10° N
Cosmos 2219 Rocket 3.0 20:57:44 10° NNW 21:03:08 42° ENE 21:06:53 19° ESE
Cosmos 2266 Rocket 4.5 20:58:17 10° SSW 21:04:31 63° W 21:10:54 10° N
COSMOS 2428 4.4 21:00:03 10° N 21:04:34 23° NE 21:08:56 11° E
USA 245 4.2 21:02:18 15° SSW 21:04:54 42° W 21:09:00 10° NNW
BREEZE-M DEB (TANK) 2.3 21:02:59 10° WNW 21:05:02 59° NNE 21:06:54 20° E
ATLAS CENTAUR R/B 1.2 21:02:40 10° SW 21:06:07 68° NW 21:09:42 10° NNE
Cosmos 1850 Rocket 4.1 21:02:32 10° SSW 21:07:45 76° WNW 21:12:59 10° NNE
Okean 2 4.2 21:08:11 26° SE 21:09:30 33° E 21:13:07 10° NNE
Cosmos 1655 Rocket 4.1 21:03:41 10° S 21:10:05 81° W 21:16:31 10° N
Meteor 1-4 Rocket 2.3 21:13:07 41° SE 21:13:37 47° E 21:16:32 10° NNE
Cosmos 2228 Rocket 3.4 21:09:51 13° SSW 21:13:55 71° W 21:18:30 10° N
MOS 1 Rocket 4.0 21:10:22 17° S 21:14:34 62° W 21:19:50 10° NNW
Cosmos 1315 Rocket 3.2 21:17:29 32° SE 21:18:49 44° E 21:22:38 10° NNE
Cosmos 1953 3.1 21:16:08 10° N 21:19:41 35° ENE 21:20:51 28° ESE
Cosmos 968 Rocket 3.5 21:16:04 10° SSW 21:21:12 84° WNW 21:26:26 10° NNE
SPOT 3 Rocket 4.0 21:18:17 19° S 21:21:55 57° W 21:27:01 10° NNW
SeaSat 1 3.3 21:19:03 18° S 21:22:13 40° WSW 21:26:50 10° NW
Spot 1 4.2 21:20:19 10° NNE 21:24:54 88° WNW 21:28:26 18° SSW
Cosmos 2360 Rocket 2.3 21:22:38 10° NNW 21:28:18 69° WSW 21:31:30 26° S
Cosmos 1242 Rocket 3.6 21:29:30 22° ENE 21:29:30 22° ENE 21:31:10 10° NE
MetOp-A 4.0 21:28:25 27° SSE 21:31:19 88° WSW 21:36:37 10° NNW
BlueWalker 3 2.3 21:31:50 38° ESE 21:31:50 38° ESE 21:34:58 10° ENE
Cosmos 1814 Rocket 4.0 21:29:16 10° NNW 21:34:36 88° WSW 21:37:16 31° SSE
COSMOS 2455 3.9 21:35:30 25° SE 21:36:42 26° ESE 21:41:34 10° NE
SL-16 R/B 3.7 21:35:12 10° NW 21:39:53 27° WSW 21:43:40 14° SSW
USA 234 3.9 21:34:28 10° NE 21:40:52 58° NNW 21:47:15 10° WSW
Landsat 5 3.9 21:37:30 10° N 21:41:28 59° WNW 21:44:11 20° SSW
Cosmos 2333 Rocket 2.6 21:38:34 10° NNW 21:44:12 57° WSW 21:47:09 28° S
Cosmos 1703 Rocket 3.7 21:43:33 38° SSE 21:44:59 58° E 21:49:23 10° NNE
Okean 3 4.2 21:46:08 20° SW 21:48:42 48° WNW 21:52:45 10° N
Cosmos 1346 Rocket 4.3 21:45:59 10° NNW 21:49:21 29° W 21:51:09 20° SW
DNEPR-1 R/B 4.2 21:45:21 10° NW 21:51:58 87° SW 21:54:25 35° SSE
SL-08 R/B 4.4 21:50:33 28° S 21:54:00 84° E 22:00:07 10° N
Cosmos 1408 4.0 21:55:12 19° ENE 21:55:12 19° ENE 21:56:47 10° NE
Cosmos 1455 1.8 21:51:02 10° N 21:54:32 87° E 21:55:03 63° SSE
Atlas Centaur 2 4.2 21:52:06 10° WSW 21:57:54 21° SSW 21:58:33 21° SSW
CZ-4C R/B 2.8 21:58:28 27° ESE 21:58:28 27° ESE 22:02:34 10° NE
H-2A R/B 3.5 21:58:41 30° ESE 21:59:56 37° ENE 22:03:51 10° N
Cosmos 2237 Rocket 3.8 21:58:42 10° N 22:03:27 26° NE 22:07:12 14° E
SJ 16-02 2.5 22:00:22 13° SW 22:03:56 39° WNW 22:08:01 10° N
Terra 4.1 22:01:19 10° SW 22:04:07 16° W 22:06:56 10° NW
GENESIS II 3.9 22:04:45 54° SW 22:05:31 88° NW 22:09:10 10° NE
Cosmos 2322 3.7 22:01:32 10° NNW 22:07:14 75° ENE 22:09:35 37° SE
CZ-2C R/B 3.5 22:03:37 10° NNE 22:08:03 87° ESE 22:09:29 43° SSW
Cosmos 2227 Rocket 4.1 22:08:29 14° E 22:08:50 14° E 22:11:38 10° ENE
Cosmos 371 Rocket 3.8 22:15:49 38° ESE 22:16:22 39° ESE 22:20:51 10° NE
Cosmos 2322 Rocket 4.0 22:18:03 10° NW 22:22:03 20° W 22:24:47 14° SW
ARIANE 5 R/B 2.6 22:23:17 50° SSW 22:24:14 68° WSW 22:28:34 10° NNW
Cosmos 1238 4.4 22:23:12 10° N 22:26:30 89° W 22:26:41 81° S
NOSS 5 (C) 4.4 22:25:04 10° NW 22:27:59 69° NNE 22:27:59 69° NNE
Cosmos 2297 Rocket 2.7 22:27:16 36° SE 22:28:17 39° ESE 22:33:29 10° NE
SL-4 R/B 3.0 22:25:14 10° NW 22:29:06 44° NNE 22:31:56 18° E
ATLAS 2AS CENTAUR R/B 3.5 22:23:11 10° NW 22:29:09 34° WSW 22:31:35 26° SSW
Cosmos 1486 Rocket 4.0 22:28:53 47° SSE 22:30:14 65° ESE 22:35:23 10° NNE
USA 281 3.3 22:34:22 37° S 22:37:08 68° WSW 22:43:43 10° NNW
NOSS 8 (H) 4.4 22:37:58 77° ENE 22:37:58 77° ENE 22:40:55 10° NE
Cosmos 1745 Rocket 4.1 22:35:00 33° SSW 22:38:02 75° W 22:44:26 10° N
Spot 4 3.7 22:41:21 53° SSE 22:42:29 88° ENE 22:47:19 10° NNW
GP-B 4.0 22:38:20 10° NNW 22:42:29 40° W 22:43:50 31° WSW
PSLV R/B 4.5 22:39:57 10° NNE 22:43:45 33° E 22:43:45 33° E
Cosmos 1782 Rocket 3.9 22:41:12 10° NNW 22:45:26 53° W 22:46:09 47° SW
Cosmos 2219 Rocket 3.3 22:41:58 10° NW 22:46:54 31° WSW 22:48:35 26° SW
Nadezhda 1 Rocket 4.3 22:41:51 10° NNW 22:48:00 58° W 22:50:31 35° SSW
Meteor 2-5 Rocket 3.9 22:46:15 43° SSE 22:48:05 65° E 22:53:53 10° NNE
COSMOS 2428 2.8 22:43:39 10° NNW 22:49:17 64° WSW 22:50:54 45° S
Cosmos 2084 Rocket 4.1 22:55:25 40° E 22:55:25 40° E 22:58:47 10° NE
Cosmos 1953 4.4 22:52:49 10° NW 22:55:11 16° W 22:55:58 15° W
Cosmos 2098 Rocket 4.1 22:49:49 10° N 22:56:27 70° E 22:58:49 40° SSE
Cosmos 2181 Rocket 4.3 22:51:07 10° N 22:57:12 57° ENE 22:59:29 37° SE
H-2A R/B 3.1 22:55:21 10° NNE 22:59:08 31° E 22:59:08 31° E
Cosmos 2263 Rocket 4.1 23:00:27 14° ESE 23:01:07 14° E 23:03:51 10° ENE
Cosmos 1300 Rocket 4.2 22:58:30 10° NNW 23:02:34 42° W 23:03:09 39° WSW
Cosmos 304 Rocket 3.6 23:03:17 57° SSW 23:04:15 87° WNW 23:09:03 10° NNE
Cosmos 158 Rocket 4.5 23:04:13 10° NNW 23:09:14 45° WSW 23:10:13 40° SW
BlueWalker 3 3.2 23:06:06 10° W 23:09:37 39° NNW 23:13:10 10° NE
Cosmos 332 Rocket 4.2 23:09:40 45° ESE 23:10:08 47° ESE 23:14:50 10° NNE
Cosmos 2151 Rocket 3.8 23:06:30 10° N 23:10:50 57° ENE 23:11:26 51° ESE
Cosmos 405 Rocket 2.6 23:08:26 10° N 23:12:07 75° ENE 23:12:07 75° ENE
ALOS 2 2.7 23:14:27 56° SW 23:14:53 59° W 23:19:15 10° NNW
Okean 2 Rocket 3.3 23:12:58 10° N 23:17:24 61° E 23:18:04 54° ESE
Cosmos 1674 Rocket 3.5 23:20:04 62° SE 23:20:25 65° E 23:24:45 10° NNE
Cosmos 1378 Rocket 3.4 23:20:47 71° SSE 23:21:10 80° E 23:25:34 10° N
COSMOS 2455 3.3 23:18:35 24° SW 23:22:13 57° NW 23:28:10 10° NNE
CENTAUR R/B 2.6 23:24:42 43° SSE 23:25:45 47° ESE 23:32:07 10° NE
Cosmos 1025 Rocket 4.2 23:25:42 30° E 23:26:07 30° E 23:29:54 10° NNE
NOSS 0 Rocket 4.3 23:22:05 10° NW 23:28:04 50° WSW 23:29:40 41° SSW
Cosmos 990 Rocket 4.5 23:28:09 40° SE 23:28:52 43° ESE 23:33:42 10° NNE
Cosmos 773 Rocket 4.2 23:26:11 10° NNW 23:31:11 54° WSW 23:32:01 48° SW
H-2A R/B 4.2 23:34:40 22° W 23:34:56 22° W 23:38:15 10° NW
Cosmos 2221 Rocket 3.4 23:34:53 70° S 23:35:23 87° E 23:39:51 10° N
Cosmos 1892 2.7 23:37:30 68° N 23:37:30 68° N 23:40:38 10° N
Cosmos 1295 Rocket 4.5 23:37:49 44° SSE 23:39:49 70° E 23:45:54 10° NNE
SL-16 R/B 3.1 23:35:44 10° NNW 23:41:11 44° ENE 23:44:44 20° ESE
Cosmos 1174 3.7 23:36:30 10° NNW 23:41:21 90° NW 23:41:41 76° SSE
Cosmos 1328 4.0 23:42:44 58° E 23:42:44 58° E 23:46:31 10° NNE
Sich 1 Rocket 3.4 23:38:36 10° NNW 23:42:58 72° W 23:43:22 67° SW
Nadezhda 3 Rocket 4.2 23:38:21 10° N 23:44:35 62° E 23:47:09 35° SE
Cosmos 1777 Rocket 4.5 23:43:34 36° WSW 23:45:26 55° WNW 23:50:38 10° NNE
CZ-4C R/B 3.0 23:43:30 21° WSW 23:46:17 41° NW 23:51:40 10° NNE
Cosmos 2237 Rocket 2.4 23:42:19 10° NNW 23:47:51 54° WSW 23:48:59 46° SSW
Cosmos 1538 Rocket 4.5 23:43:40 10° NNW 23:48:48 55° ENE 23:50:57 33° SE
BREEZE-M DEB (TANK) 3.2 23:41:56 10° WNW 23:49:30 57° N 23:51:39 17° E
Cosmos 2227 Rocket 2.1 23:50:16 46° SSW 23:52:02 86° WNW 23:57:45 10° NNE
Cosmos 2184 Rocket 4.0 23:50:14 43° S 23:52:31 86° W 23:58:56 10° N
